Theta_e
291 289 287 288 289 288 288 288 290 287 286 284 283 283 283 283 284 284 282 283 282 285 286 287 286 286 288 290 291 291 284 283 284 284 285 285 285 284 284 285 285 285 286 288 287 286 286 285 285 284 285 285 284 284 285 285 285 286 286 287 285 287 287 286 286 285 285 283 283 283 282 282 283 282 283 283 284 284 283 284 284 284 283 283 283 282
292 288 289 290 289 287 285 283 282 282 283 285 283 282 284 282 284 287 286 284 282 285 283 284 283 285 287 289 290 290 284 285 285 284 284 286 285 285 285 285 285 286 287 286 285 285 285 284 284 284 284 285 283 283 284 285 285 285 285 286 286 286 286 286 285 285 285 284 283 282 282 282 282 282 281 281 282 283 284 284 284 283 283 283 282 282
287 287 292 289 286 281 280 282 283 285 284 283 284 281 283 284 283 285 283 282 283 284 284 283 283 286 289 290 292 291 291 291 290 287 288 287 286 285 286 285 286 286 286 285 285 285 284 284 284 283 284 284 284 284 284 285 285 284 284 285 285 285 285 285 285 285 284 284 285 283 283 282 282 283 282 282 283 283 283 283 283 283 282 282 282 282
288 286 289 285 283 284 281 281 282 282 282 282 280 283 284 283 284 284 284 282 285 284 283 284 283 286 289 290 290 292 292 292 292 289 288 289 287 287 287 287 286 286 286 284 284 284 284 284 284 283 283 283 284 284 283 283 284 284 285 284 284 285 285 285 285 286 285 284 284 284 283 283 282 281 283 283 283 283 282 282 282 282 282 282 281 281
289 288 283 282 283 287 283 282 283 283 284 282 284 282 283 284 284 285 284 281 281 282 281 282 285 287 287 287 288 284 286 287 291 289 288 287 288 289 289 288 288 287 286 286 285 284 284 283 283 283 284 283 283 284 284 283 284 284 284 284 284 284 284 284 286 286 285 284 284 283 282 282 281 281 281 280 280 281 281 280 281 280 281 281 281 281
288 287 282 284 285 283 283 282 282 285 282 279 281 286 286 285 285 283 281 283 281 281 282 282 283 283 280 283 284 287 285 286 286 286 288 288 287 286 286 287 288 288 288 287 286 285 284 284 284 284 283 283 283 283 284 284 284 284 284 284 284 284 284 284 284 285 284 283 282 280 279 278 278 278 278 278 278 279 278 279 280 280 280 280 280 280
288 282 285 285 284 284 285 285 282 285 282 283 285 283 285 284 284 282 281 284 278 277 283 281 281 281 282 287 286 284 284 287 287 287 289 288 286 286 287 288 288 287 287 287 287 286 284 284 284 283 283 283 283 283 284 284 284 284 284 284 284 283 283 284 283 283 284 282 281 280 279 279 278 278 279 279 279 279 279 280 279 279 280 280 279 279
283 282 282 283 284 284 284 284 283 285 284 282 282 280 282 282 283 281 282 283 282 280 281 282 283 280 281 285 287 289 291 291 289 290 290 290 288 287 287 287 288 288 288 287 286 286 285 285 284 283 283 283 283 284 284 283 283 283 283 283 283 283 284 283 283 282 283 281 280 280 279 279 278 278 278 279 278 279 279 279 279 278 278 279 279 278
284 283 283 283 283 282 284 283 282 286 284 281 281 280 281 281 281 280 283 280 278 278 277 279 282 279 278 279 280 284 287 288 289 290 291 291 289 288 287 288 288 288 288 288 287 286 286 285 284 284 284 284 284 283 283 283 283 283 283 283 283 282 284 283 283 282 281 282 281 280 279 278 280 279 279 279 279 279 278 277 277 277 277 278 278 278
285 283 284 286 284 284 282 281 281 286 286 283 280 281 279 279 278 278 277 280 276 275 278 280 281 276 282 282 284 280 282 285 286 289 291 291 289 288 288 288 288 288 288 287 287 287 286 286 285 285 285 283 283 283 284 283 283 283 282 282 282 281 281 282 281 283 281 281 282 280 279 278 278 278 278 278 277 277 277 276 276 276 276 277 277 277
284 286 285 285 285 284 280 280 280 280 282 282 281 281 281 277 277 275 275 273 274 273 280 284 281 282 280 282 283 283 284 285 287 288 289 288 287 287 287 287 288 287 287 287 287 287 287 286 286 285 283 283 283 283 283 283 283 282 282 282 281 281 281 281 281 280 280 279 279 279 278 278 277 277 277 276 276 276 276 275 275 276 276 276 276 276
285 284 285 284 283 282 282 282 281 280 280 282 282 281 280 282 276 274 265 271 271 275 278 277 279 282 277 280 282 286 284 284 289 289 290 289 289 287 286 286 287 287 287 287 286 286 285 284 284 284 283 283 282 282 282 282 282 282 281 281 281 280 280 280 280 279 279 279 279 279 278 278 277 277 276 276 275 275 275 275 275 275 275 275 276 276
284 284 283 285 285 285 282 282 282 281 283 282 282 280 276 272 272 272 269 272 270 276 276 273 277 277 278 285 284 285 286 287 286 289 291 290 291 290 287 286 285 286 286 286 285 285 284 284 283 282 283 282 281 281 282 282 281 281 281 280 280 280 279 279 279 279 279 278 278 278 278 277 277 277 276 276 275 275 275 275 274 274 274 274 274 274
283 281 282 285 284 285 287 285 280 279 281 281 283 276 272 270 268 268 269 263 268 274 274 278 277 277 284 284 289 289 290 290 290 288 289 289 291 291 288 285 283 284 285 285 285 285 284 284 284 283 283 282 282 282 282 282 281 281 281 280 280 280 279 279 278 278 278 278 278 278 277 277 277 276 276 275 275 275 275 275 274 274 274 273 273 273
276 282 281 285 284 285 288 291 287 281 280 282 281 284 281 273 267 270 264 273 278 277 272 274 273 274 274 283 282 291 292 293 292 289 287 287 287 286 284 283 283 283 283 284 284 284 284 284 284 283 283 282 282 282 281 282 281 281 281 280 280 279 279 278 278 278 278 278 277 277 277 276 276 276 275 275 276 275 275 275 274 274 274 273 273 273
282 282 281 284 282 285 286 283 283 283 282 280 279 281 277 279 277 276 271 267 269 273 275 270 278 278 283 283 282 279 282 289 291 290 287 288 288 285 284 284 284 284 283 283 283 284 284 284 283 283 282 282 282 281 282 281 281 281 281 280 280 280 279 278 278 278 278 277 277 277 276 276 276 276 276 276 275 275 274 274 273 273 273 273 273 273
280 279 282 282 282 283 283 281 284 284 282 280 281 279 281 281 283 276 271 268 267 266 277 270 277 282 284 286 284 286 283 287 287 286 285 287 288 285 284 285 284 284 284 283 283 283 283 282 283 283 282 282 282 281 281 281 281 281 280 279 279 279 278 278 278 278 277 277 276 276 275 275 275 275 274 274 274 274 274 274 273 273 273 273 273 273
284 284 281 282 284 282 279 280 280 278 283 281 276 280 281 281 281 279 275 270 264 270 276 270 278 281 282 280 281 283 284 287 287 285 286 286 286 284 285 285 286 286 284 283 283 283 283 283 283 282 282 282 282 282 281 281 281 281 280 279 279 278 277 277 277 277 276 276 276 275 275 275 275 274 274 274 273 273 273 273 273 272 272 272 272 272
288 284 284 281 281 281 279 282 285 283 281 281 278 282 283 276 276 275 270 273 270 268 270 277 280 281 283 283 280 281 283 286 286 286 284 285 285 285 286 286 285 284 282 282 281 281 282 282 282 282 282 282 282 282 281 281 280 280 280 279 279 278 278 277 277 277 277 276 275 275 275 274 274 274 273 273 273 273 272 272 272 271 272 272 272 272
288 285 283 279 280 281 281 283 280 280 282 281 282 281 280 280 273 274 278 271 272 270 266 277 280 279 283 281 283 285 285 286 286 284 284 285 286 286 286 286 285 284 283 282 282 282 282 282 282 281 281 281 281 281 280 280 279 279 279 279 278 278 277 276 276 276 275 275 275 274 274 274 273 273 273 272 272 271 271 271 271 271 271 271 272 271
285 283 283 281 278 280 279 281 283 283 279 277 279 277 277 275 278 276 274 273 274 268 271 271 275 281 285 285 284 286 286 286 286 287 286 286 286 286 286 286 285 284 283 282 282 282 281 281 281 281 281 281 281 281 280 279 278 278 278 278 277 276 276 275 275 275 275 274 274 273 273 272 272 272 272 271 271 271 270 271 271 271 271 271 271 271
283 281 284 281 278 278 281 281 282 283 285 282 282 280 282 278 274 272 276 272 267 273 271 269 276 283 286 284 286 285 285 285 286 287 287 287 288 287 286 285 285 284 283 283 282 282 281 281 280 280 280 280 280 279 278 278 278 277 277 277 276 276 275 275 274 274 274 274 273 272 272 272 272 271 271 270 270 270 270 270 270 270 270 270 270 271
286 281 283 282 284 284 282 281 278 278 282 281 283 282 284 281 280 274 274 276 266 274 270 272 269 280 287 287 286 285 285 286 286 286 288 288 287 287 287 285 283 283 284 283 282 281 281 280 280 280 280 279 279 279 278 277 277 277 276 276 275 275 275 274 274 274 273 273 272 271 271 271 270 270 270 269 269 269 269 270 270 270 269 269 270 270
291 283 281 284 285 278 279 279 279 279 282 281 281 277 281 281 282 283 283 277 275 272 273 269 272 281 288 284 284 284 285 286 286 285 287 288 285 283 282 282 281 281 281 281 280 280 280 279 279 279 279 279 279 278 277 277 277 276 276 275 275 274 274 273 273 273 272 271 271 271 270 270 269 269 269 268 269 269 269 269 269 270 269 269 269 269
284 284 283 280 277 280 276 278 279 278 279 278 278 281 282 283 283 278 274 273 272 277 275 276 273 280 287 278 282 281 282 284 283 281 282 285 284 282 281 281 281 281 280 279 279 279 279 279 278 279 279 279 279 278 277 277 276 275 275 274 274 273 273 272 272 271 271 270 270 269 269 268 269 268 268 268 268 268 268 268 268 269 268 268 268 268
287 284 284 278 277 275 274 275 273 272 279 279 276 278 282 282 282 278 278 275 275 277 278 278 279 285 290 288 285 284 281 284 281 279 279 280 281 281 281 282 282 280 280 280 279 278 278 279 279 279 279 279 279 278 277 276 275 275 274 274 273 272 272 271 271 271 270 270 268 268 268 268 268 268 268 267 268 268 268 268 268 268 268 267 266 266
283 284 287 286 283 280 282 283 281 280 277 277 276 280 281 282 283 283 283 278 277 276 278 282 283 284 286 288 288 290 290 289 290 287 281 282 281 280 281 282 282 281 280 279 279 279 278 278 278 279 279 279 278 278 277 276 275 274 273 272 272 272 271 271 270 270 269 268 268 267 267 267 267 267 267 267 267 267 268 267 267 267 266 266 266 265
280 282 285 286 285 286 286 286 282 283 280 280 280 279 282 281 281 280 279 279 282 275 276 282 284 282 283 286 288 289 290 291 290 290 291 289 287 285 284 283 283 279 279 278 278 278 278 279 279 278 279 278 278 277 276 275 274 273 273 272 271 271 270 270 269 269 268 267 267 267 267 267 267 267 267 267 267 267 267 266 266 265 265 265 265 264
283 284 286 286 284 286 287 286 285 281 284 283 282 282 281 281 280 278 280 283 283 279 278 283 284 281 284 287 289 290 291 291 290 291 291 290 289 286 283 282 280 279 279 278 278 278 278 278 278 278 278 278 277 276 275 274 273 272 272 271 270 270 269 269 268 267 267 267 266 266 267 266 266 266 266 266 266 265 265 265 264 264 264 264 264 264
284 284 286 285 284 284 285 285 284 282 283 283 283 282 283 282 280 281 281 283 283 282 284 284 284 283 287 288 290 291 292 291 291 292 292 291 290 289 287 283 281 280 279 278 278 279 279 279 279 278 278 277 276 276 274 273 272 271 270 270 270 269 269 268 267 266 266 266 266 266 266 265 265 265 265 265 264 264 263 263 263 263 262 263 263 264
286 283 288 284 283 284 286 286 285 283 283 283 284 284 284 283 281 281 282 283 284 282 283 283 282 282 288 291 290 292 292 292 291 291 291 292 291 290 290 289 284 282 282 280 279 279 279 279 278 278 277 277 276 276 274 272 271 270 270 269 268 268 268 267 266 265 265 265 265 265 265 264 264 264 263 263 262 262 261 262 261 261 261 262 262 263
285 283 287 283 281 281 285 285 285 284 283 283 283 285 285 283 279 282 281 283 282 281 283 282 280 282 287 290 290 290 290 290 289 290 291 291 290 290 289 289 289 287 283 281 280 279 278 278 278 277 277 277 276 275 273 271 270 269 269 268 268 267 267 265 265 264 265 264 264 264 264 263 263 262 262 261 261 260 260 260 260 260 261 261 262 263
284 282 282 282 279 279 284 284 281 281 280 278 280 284 285 285 286 286 287 287 285 285 282 280 281 288 289 291 289 289 287 286 288 289 290 290 290 289 289 290 290 289 286 284 281 279 279 278 278 278 278 277 276 274 273 271 269 269 268 267 267 266 265 264 264 264 263 264 263 263 263 262 261 261 260 260 260 259 259 259 260 260 260 261 262 263
283 284 283 285 279 280 284 280 281 279 274 277 287 287 288 285 286 284 284 286 287 286 285 287 288 290 290 290 289 289 289 290 291 293 293 291 290 291 291 288 288 288 287 284 282 280 279 279 279 279 278 277 276 274 271 271 270 269 268 267 266 265 264 264 264 263 263 263 263 262 262 261 260 259 259 259 259 259 259 259 259 260 261 261 262 262
283 284 282 285 280 279 280 279 277 272 276 286 286 287 287 286 287 286 287 288 288 288 288 288 289 289 290 291 291 291 292 293 293 293 293 289 290 292 292 290 287 286 286 284 281 280 279 279 278 278 277 276 274 271 270 269 268 267 266 265 264 264 264 263 263 262 262 262 262 261 260 260 259 258 258 258 258 258 258 258 259 260 261 261 262 261
284 283 283 282 282 277 276 278 272 274 284 286 287 288 289 286 286 283 283 285 286 287 288 287 289 290 291 291 292 293 292 292 292 292 292 289 291 291 290 290 290 288 285 284 282 280 279 278 278 277 276 274 271 269 269 267 266 265 264 265 264 264 263 263 262 262 262 261 260 260 259 258 258 257 257 257 257 257 258 258 259 259 260 261 261 261
287 286 284 280 285 276 278 278 277 284 283 285 285 287 288 284 284 283 280 284 289 289 289 288 289 290 290 291 292 292 292 290 287 290 293 289 291 290 289 290 290 289 287 284 282 281 280 279 278 277 274 271 270 268 267 266 266 265 264 263 263 263 263 262 261 261 261 260 259 259 258 258 257 256 256 256 256 256 257 258 258 259 260 260 260 260
288 284 285 282 279 284 278 276 277 277 274 280 287 290 288 286 287 286 284 284 290 291 292 290 289 290 290 291 291 291 287 285 286 288 292 288 290 289 287 287 287 286 283 281 279 278 278 277 276 273 271 269 268 267 266 265 265 264 263 263 263 262 262 261 261 261 260 259 259 258 258 257 256 255 255 255 255 256 257 258 259 259 260 259 259 259
288 288 286 283 280 282 279 276 275 274 277 286 287 289 287 286 287 283 281 280 289 291 292 291 290 290 290 290 290 289 284 284 285 289 292 290 285 285 285 285 283 281 280 279 278 277 276 274 272 270 269 268 266 265 265 264 264 263 263 263 262 262 261 261 261 260 259 259 259 258 257 256 256 255 255 255 256 256 256 257 258 259 260 260 259 259
284 284 284 280 279 280 279 277 275 280 279 286 289 287 282 285 287 284 275 278 290 292 291 291 289 290 291 291 291 287 286 284 286 290 289 284 284 281 282 281 277 277 277 277 277 276 274 271 269 268 267 266 265 264 264 263 263 262 262 262 262 261 261 261 261 260 259 258 257 257 256 256 255 255 254 255 255 256 257 258 258 258 258 259 259 259
280 281 283 277 279 280 281 278 281 281 287 288 289 283 284 288 287 277 276 284 292 289 289 290 290 290 290 289 288 286 288 291 292 290 276 276 277 276 276 276 276 277 276 275 274 274 270 269 268 267 266 265 264 263 263 263 263 262 262 261 261 261 261 261 260 259 258 257 256 256 255 255 255 254 254 254 255 256 257 258 258 258 258 258 258 259
278 281 280 282 278 278 279 277 277 282 287 291 286 285 287 286 278 279 288 294 293 287 286 288 289 289 289 289 288 289 291 291 291 277 276 277 279 276 275 274 274 273 273 273 272 270 269 269 268 266 265 264 263 263 263 263 262 262 261 261 261 261 261 259 259 258 256 256 256 255 254 254 254 254 253 254 255 255 256 257 257 257 257 258 258 258
279 280 274 278 280 281 280 277 276 274 285 293 286 284 285 285 285 292 293 292 291 291 291 288 289 289 289 288 289 289 290 288 285 282 281 277 276 275 274 273 272 271 270 269 269 270 269 267 266 264 263 263 263 263 263 263 262 261 261 261 261 260 259 258 257 256 256 255 254 254 253 253 253 253 252 253 254 254 255 256 256 256 257 257 257 259
287 282 278 281 284 277 276 275 276 284 289 291 288 284 286 290 294 294 293 291 293 293 290 288 287 289 289 289 289 288 288 287 283 281 280 277 276 274 274 273 273 271 270 270 270 269 269 266 265 263 263 263 263 263 263 263 262 261 261 262 260 259 258 257 256 255 254 253 253 253 253 253 252 253 252 253 254 254 254 255 255 256 256 257 258 260
288 287 287 283 286 284 280 283 287 290 291 292 292 292 292 293 295 294 293 293 292 292 291 289 290 288 288 289 290 289 287 286 286 284 281 279 276 274 273 273 271 269 269 269 268 269 267 265 263 262 262 262 262 262 262 263 262 261 261 260 259 258 257 256 254 253 253 253 252 252 252 252 252 252 253 253 254 254 254 254 254 255 256 257 258 260
292 294 292 290 287 291 292 291 290 290 291 290 292 294 294 292 292 293 292 292 291 293 293 290 290 290 287 288 288 287 288 288 286 283 280 278 276 274 273 271 270 269 268 268 267 266 266 264 263 262 261 261 261 261 261 262 262 261 261 259 259 258 256 254 253 252 252 252 252 252 252 252 254 254 254 253 254 253 254 254 254 255 256 257 259 260
290 292 290 287 289 287 283 291 291 290 291 291 291 291 293 293 292 292 291 291 292 293 293 289 290 289 288 287 287 289 289 288 286 284 281 279 275 273 272 270 269 268 267 267 267 265 264 263 262 261 260 260 260 260 260 260 262 261 259 258 257 256 254 253 252 252 252 251 252 251 252 253 254 254 253 253 253 254 254 254 255 255 257 259 259 260
286 293 289 288 289 286 286 291 293 294 294 293 291 289 289 291 291 291 292 292 293 293 291 291 288 287 287 286 287 288 289 288 285 284 280 278 276 273 272 270 269 268 267 267 266 265 263 262 262 261 260 260 260 260 260 260 259 258 258 257 256 254 253 252 252 252 251 251 252 252 252 253 254 254 253 253 253 253 253 254 255 256 258 259 260 260
287 291 286 288 287 288 291 292 291 291 289 290 289 290 291 292 292 291 292 292 291 290 290 288 287 289 288 288 289 288 287 287 286 284 281 279 276 273 272 270 269 268 267 266 265 264 263 263 262 261 260 260 259 259 259 258 258 257 257 256 254 253 252 252 253 252 251 252 252 253 253 252 251 252 253 253 253 253 253 253 254 257 259 262 263 264
286 284 288 288 285 285 286 288 291 286 286 290 291 292 291 291 291 291 291 290 290 290 290 290 289 287 288 289 289 288 287 288 286 283 281 279 277 274 273 271 269 267 266 266 265 264 263 263 262 261 260 259 259 258 258 257 256 256 256 254 253 253 252 252 251 251 251 252 252 252 252 252 251 251 252 252 252 252 253 257 262 262 262 262 266 268
288 288 288 285 285 285 290 292 292 292 292 293 294 294 294 294 292 291 291 291 291 291 291 290 289 289 287 286 287 287 287 287 286 284 281 279 278 276 273 270 268 267 266 265 264 263 263 262 262 261 260 259 258 257 257 256 256 256 255 254 253 253 252 252 252 252 251 251 251 253 252 251 252 252 252 252 252 251 252 253 254 260 264 265 266 267
Wind_Speed
1 3 7 10 10 9 7 11 8 6 6 3 3 2 7 7 9 5 3 3 0 1 12 14 11 15 18 18 17 10 8 13 16 13 13 14 12 12 13 15 17 17 20 8 9 10 11 11 10 10 9 10 9 10 10 10 9 9 8 7 8 6 5 5 5 4 4 4 3 2 3 3 3 3 4 5 5 5 5 6 6 6 5 6 5 4
1 3 13 11 8 10 7 4 6 6 1 4 3 4 8 4 10 5 0 1 3 2 5 1 6 15 18 15 15 10 7 18 20 15 16 19 13 12 16 18 18 19 4 5 9 10 9 10 11 10 10 11 13 10 11 12 11 10 9 9 9 6 6 7 6 5 4 3 3 2 3 3 3 4 4 4 4 5 5 6 6 5 5 6 5 4
1 9 14 4 4 6 5 5 3 6 4 1 4 3 2 8 6 10 3 1 1 2 9 7 10 19 20 16 18 14 20 20 13 13 20 16 13 14 15 17 16 11 13 10 13 11 12 12 13 12 11 11 13 13 13 12 11 11 10 9 9 8 7 7 6 5 4 3 3 4 3 2 3 3 5 5 5 5 5 4 4 5 6 6 5 4
5 9 11 4 8 8 3 3 5 3 3 5 2 2 9 3 2 8 1 2 1 3 5 6 15 19 20 15 22 18 16 18 10 12 17 11 14 17 19 17 15 17 15 17 17 17 15 15 14 13 13 13 11 12 11 11 12 10 9 10 9 8 7 7 6 6 5 5 4 4 3 3 3 5 4 5 5 6 5 6 5 6 6 6 6 5
13 2 1 6 4 6 5 3 5 5 5 2 5 5 5 4 6 8 4 4 2 1 1 10 13 15 10 10 9 4 3 5 16 8 11 11 13 13 9 9 15 19 18 18 15 15 15 15 18 18 15 12 13 13 13 12 11 8 12 11 11 8 8 7 6 7 5 4 3 2 1 2 4 4 4 5 5 5 5 6 6 7 7 7 7 6
14 5 4 5 2 2 4 3 7 7 7 3 7 14 10 5 6 2 3 5 6 4 4 4 11 9 2 4 8 8 3 5 6 8 15 13 11 10 13 17 13 14 14 17 19 19 18 18 16 14 14 15 14 14 13 12 11 12 11 10 9 8 7 7 7 7 5 5 5 4 3 2 3 4 4 5 5 4 5 6 6 7 7 6 6 6
7 2 4 6 5 3 4 5 5 7 6 1 6 5 9 5 2 0 1 3 4 2 1 4 2 19 6 1 5 4 5 12 7 9 16 8 10 11 14 14 13 15 14 13 13 13 16 18 17 18 17 18 17 15 12 12 12 12 11 11 10 9 7 7 8 7 6 5 4 6 5 4 5 5 5 4 5 5 6 5 7 7 6 6 6 7
3 1 5 3 4 4 3 9 5 11 6 6 1 3 5 4 3 3 2 2 6 0 5 1 4 11 20 8 7 9 12 14 11 16 16 13 11 12 14 14 14 14 14 14 16 17 19 19 21 23 22 17 17 14 13 12 10 13 12 12 11 8 7 7 7 8 6 6 5 5 5 5 6 7 7 5 6 6 6 7 7 6 6 6 6 7
4 4 4 5 3 5 9 5 5 10 8 3 2 4 5 5 3 5 1 3 1 5 6 5 1 4 11 3 3 1 7 11 14 16 16 13 10 12 14 14 15 15 15 15 15 17 19 21 22 19 18 17 14 14 14 12 10 10 11 11 10 9 8 7 9 8 7 6 5 5 5 6 5 6 6 6 6 6 6 8 7 7 7 6 6 6
1 2 7 7 7 8 4 2 2 10 6 1 7 7 7 7 7 3 4 1 4 3 10 8 10 6 24 6 5 3 1 9 13 15 16 13 9 11 12 14 13 10 10 12 17 16 17 18 17 17 14 14 15 12 11 11 11 11 10 11 11 10 8 8 8 7 8 7 5 5 6 7 6 5 5 5 6 6 6 7 8 7 6 5 5 6
0 4 4 4 6 4 6 2 1 2 1 8 4 6 5 7 4 3 6 2 2 7 11 14 16 13 16 4 10 10 10 12 11 8 10 7 7 9 11 11 10 10 11 12 14 14 14 11 12 13 17 16 13 12 12 12 12 11 11 11 12 10 8 8 8 8 8 7 6 6 6 7 7 6 5 5 6 5 5 7 7 6 5 5 6 5
0 2 1 2 5 5 4 5 4 2 3 4 2 2 4 1 6 2 4 4 1 10 3 1 14 13 13 4 5 7 2 6 11 11 12 9 10 11 10 10 9 9 11 11 10 11 10 10 12 12 16 16 15 12 14 12 11 10 11 11 12 9 9 8 7 7 7 6 6 6 6 7 7 6 5 6 7 6 7 8 8 6 6 6 6 6
5 8 2 1 4 9 3 8 2 2 0 4 6 5 2 6 7 6 2 2 6 9 1 2 5 6 19 20 1 6 12 11 11 10 10 9 9 7 7 8 8 8 8 9 10 9 10 13 14 16 16 14 16 18 15 14 12 11 12 12 12 11 9 8 7 7 7 6 6 6 6 6 6 6 6 7 7 6 7 6 6 6 7 7 8 7
8 1 1 4 2 5 8 6 2 1 5 5 7 5 4 1 1 6 6 1 7 7 4 3 2 11 11 9 16 20 17 17 15 14 10 7 9 7 4 5 6 7 9 9 9 11 12 14 14 15 15 17 16 16 15 14 13 10 11 12 12 11 9 8 7 7 6 6 6 6 6 5 5 5 6 6 6 6 6 6 6 6 7 8 9 10
4 8 7 8 5 4 10 11 9 6 10 9 3 10 9 9 7 7 3 7 11 9 1 6 1 9 1 7 6 18 20 18 14 9 7 9 9 7 3 3 5 7 8 8 10 12 14 14 14 14 15 15 15 16 14 13 13 11 11 11 12 10 8 8 8 6 7 5 5 5 5 5 4 5 5 6 6 6 6 5 6 7 7 8 10 9
11 10 3 1 1 5 11 1 6 8 5 2 3 5 5 10 7 6 4 2 4 7 9 3 9 4 8 2 2 2 2 8 16 13 6 11 12 6 6 8 8 8 8 9 10 11 12 11 11 12 13 14 13 15 14 15 13 12 12 12 11 11 10 8 8 7 6 6 5 5 6 5 5 5 5 5 5 6 5 6 6 8 8 9 10 11
2 7 0 2 1 2 3 3 1 4 6 4 6 7 6 1 5 1 2 1 3 4 17 3 12 12 4 11 6 5 4 12 8 6 7 12 15 4 8 9 9 9 9 9 11 11 9 9 11 13 13 13 14 14 17 16 14 14 13 12 11 9 8 9 8 7 6 5 5 5 5 4 4 5 6 5 6 7 6 6 7 7 9 10 10 11
5 6 1 4 5 2 0 0 1 5 4 10 4 8 2 2 3 5 5 3 2 6 12 2 14 21 16 14 2 2 6 15 9 11 12 13 9 6 11 10 11 12 9 7 9 8 10 12 14 13 13 16 17 17 16 15 13 13 13 13 12 10 10 8 7 7 6 5 5 5 4 4 4 4 5 5 6 6 6 7 7 8 9 10 10 11
6 9 5 4 2 2 1 1 1 1 2 3 4 2 7 4 1 2 4 5 6 6 8 14 16 17 23 16 4 6 13 15 14 13 10 12 12 13 12 13 13 8 5 8 10 10 10 12 14 14 15 14 14 14 15 13 14 12 11 11 12 12 11 10 6 6 5 5 4 3 4 4 4 4 4 4 6 6 7 8 8 9 10 11 11 11
1 8 4 2 3 1 1 4 8 6 0 1 1 2 2 2 2 6 8 3 5 5 2 20 19 21 9 8 10 12 15 13 11 10 11 15 15 12 11 12 12 9 10 10 10 11 12 13 14 15 15 16 17 15 14 14 11 13 12 12 10 8 8 7 7 6 5 5 4 3 3 3 3 4 4 5 6 6 7 8 9 10 11 11 11 12
4 3 10 2 6 2 4 7 15 16 13 3 2 2 1 0 3 3 1 4 5 4 7 7 16 24 6 11 13 11 12 13 14 13 10 11 12 12 12 12 10 9 9 10 11 12 12 12 11 11 12 11 11 11 12 12 14 13 11 12 11 12 9 8 6 6 5 4 4 3 4 4 3 4 4 6 6 7 7 8 9 9 10 11 11 11
2 3 12 3 1 6 11 1 1 2 10 13 15 14 17 11 4 3 12 2 2 4 9 5 21 23 8 6 9 7 8 9 11 11 11 10 12 11 12 11 10 9 10 11 11 11 10 9 9 9 9 10 12 12 14 10 11 13 13 12 10 9 7 8 6 6 5 4 3 4 3 4 3 3 5 6 6 7 7 8 8 9 10 11 12 11
5 2 1 8 12 10 5 0 1 1 3 6 10 11 11 7 6 5 10 9 1 7 4 3 2 29 4 5 2 7 8 8 11 11 10 9 12 11 9 8 7 9 10 10 10 8 8 9 10 12 14 15 16 13 11 11 13 12 12 11 9 9 7 7 6 5 4 3 3 3 3 3 3 4 6 6 6 6 7 8 9 9 10 11 11 11
4 1 3 9 8 3 1 2 1 0 2 1 4 2 7 12 16 16 13 4 8 3 4 1 5 25 14 8 4 5 7 9 7 8 11 9 5 6 6 7 9 8 10 7 5 6 7 8 9 11 13 14 15 14 14 11 11 12 10 10 8 9 8 7 6 5 4 3 3 3 3 3 4 5 6 5 5 7 7 8 9 9 10 11 11 12
4 5 7 3 3 8 3 3 2 3 2 3 5 9 10 9 8 2 4 1 1 13 8 11 18 23 15 6 2 2 4 7 6 6 6 8 7 6 7 8 8 9 7 6 8 8 8 10 13 15 15 15 15 11 11 11 12 10 10 9 9 7 7 6 6 5 4 4 3 3 3 3 4 5 6 6 5 7 8 8 9 9 10 11 11 11
7 6 9 8 15 16 16 15 7 5 11 5 1 2 11 17 17 4 9 6 13 4 15 9 21 25 25 13 7 8 7 12 5 6 4 6 6 7 8 10 11 9 9 9 7 8 13 14 12 10 13 13 14 14 11 10 11 10 10 9 8 8 7 7 5 5 4 4 3 3 4 4 4 5 5 5 6 7 7 8 8 9 10 10 12 12
4 4 13 16 17 18 19 15 1 7 6 7 8 14 15 17 19 16 11 10 17 4 12 22 29 27 24 25 24 24 19 24 19 7 7 9 10 11 11 11 10 9 10 11 11 10 7 8 14 15 14 14 13 13 10 10 11 10 9 9 8 7 7 7 6 5 5 4 4 3 3 4 4 4 4 4 5 6 7 8 9 10 10 10 11 12
2 5 13 17 21 21 19 21 7 11 8 10 11 12 19 19 19 20 17 24 6 6 20 24 28 17 21 27 31 30 29 26 15 15 14 9 8 11 12 11 7 7 8 7 8 12 15 15 13 13 15 14 14 12 9 8 9 10 10 10 8 8 7 5 6 5 4 4 4 3 3 3 4 4 4 4 5 6 7 8 8 10 10 10 11 12
4 11 15 17 21 19 20 21 11 4 10 9 10 14 17 18 15 19 25 25 16 18 27 22 14 14 23 31 32 27 30 24 16 18 15 11 9 6 6 8 8 10 10 11 14 14 14 14 15 16 15 15 14 13 13 11 10 9 8 8 8 7 7 7 6 5 5 4 4 3 3 3 3 3 4 4 5 6 7 8 9 10 10 10 11 10
1 9 10 11 13 11 16 17 7 7 9 12 12 15 20 17 17 22 24 26 32 29 24 18 15 20 25 31 25 26 25 15 14 14 16 17 16 12 13 10 9 12 12 14 15 16 15 16 14 15 15 15 16 14 12 11 11 10 10 9 8 8 7 7 6 6 5 4 4 3 2 3 3 3 3 4 5 6 7 8 9 9 10 11 11 11
6 8 10 4 8 13 17 15 9 8 14 19 18 21 27 15 8 19 25 31 30 20 19 24 22 24 26 27 22 22 22 18 16 22 25 24 20 18 18 16 11 14 14 14 14 14 15 14 13 13 16 18 18 18 15 13 11 11 9 9 9 8 7 6 6 6 5 4 3 3 2 2 2 2 3 4 5 6 7 9 8 9 10 10 10 11
5 5 4 3 9 15 17 18 13 10 15 17 18 28 30 13 12 21 23 22 12 17 21 18 18 23 26 20 15 16 22 17 19 22 23 18 15 14 16 17 15 14 13 14 15 13 13 14 16 18 19 19 18 17 14 12 11 10 10 9 9 8 7 7 6 6 5 4 3 3 2 2 2 3 4 4 6 7 7 8 8 9 9 9 10 10
6 2 3 7 11 16 18 11 4 4 0 5 19 30 19 16 22 25 24 22 14 12 13 17 24 22 23 18 17 20 10 7 14 17 19 17 15 13 17 18 17 13 13 14 13 14 16 18 19 20 19 16 17 17 14 12 12 11 11 10 9 8 8 7 7 6 6 4 4 3 2 1 1 3 4 5 6 7 7 8 8 8 9 9 9 10
4 8 12 7 14 11 12 5 5 4 13 20 10 2 12 21 18 22 27 25 17 11 16 18 23 23 25 24 23 26 18 18 19 20 18 12 12 16 19 11 12 12 13 11 12 15 16 14 13 14 17 18 15 11 11 11 12 10 9 9 9 9 8 8 7 6 5 5 4 3 2 1 1 3 4 5 6 7 7 7 8 8 8 9 9 10
11 12 13 8 10 13 4 8 5 13 18 8 3 7 8 8 13 24 27 20 18 17 21 23 24 27 30 28 27 23 20 21 20 24 26 7 10 19 19 14 12 14 14 12 11 11 13 15 15 14 14 14 15 14 13 12 12 11 10 10 9 8 8 7 6 6 5 5 4 3 2 1 1 3 5 6 6 7 7 7 7 8 8 8 9 11
16 15 10 9 8 3 4 8 11 17 3 3 9 13 14 9 16 9 16 13 11 18 23 23 23 26 29 28 24 20 19 20 19 20 22 7 14 18 14 15 17 13 13 12 13 13 14 15 18 20 18 14 14 11 13 12 11 11 10 8 8 8 7 7 6 5 5 4 3 3 2 1 1 3 5 6 6 6 7 7 7 8 8 8 10 9
19 12 10 11 10 11 9 13 19 6 13 15 16 18 21 14 11 12 15 15 13 20 21 20 21 25 25 22 23 20 19 12 11 20 25 9 15 14 14 17 15 13 12 10 11 14 16 16 15 14 15 15 13 16 14 11 11 10 10 9 7 7 7 6 5 5 5 4 4 3 2 1 2 4 5 5 6 6 7 8 8 8 7 9 9 11
20 19 13 14 8 13 12 11 9 7 14 15 27 31 7 7 9 7 5 17 16 31 23 18 22 26 25 23 21 18 6 6 16 20 18 5 15 12 9 12 11 8 6 5 4 6 9 10 12 14 17 15 15 14 10 11 11 11 10 9 8 7 7 6 5 5 5 4 4 3 2 1 2 4 5 5 5 6 7 7 6 7 7 9 11 11
17 18 16 16 10 8 12 12 12 12 15 15 22 22 8 9 8 4 1 15 20 29 22 20 23 22 25 23 18 8 3 10 16 19 17 8 5 7 8 9 7 5 5 9 12 13 13 14 17 17 17 18 18 14 14 13 12 11 9 9 8 7 6 6 5 5 5 4 4 3 2 2 3 4 5 6 6 5 6 6 6 7 7 8 9 10
18 14 14 14 15 14 14 13 14 9 12 15 20 11 7 6 9 6 5 15 23 23 18 18 18 22 21 18 15 10 10 14 16 18 10 3 5 4 6 6 4 5 4 6 7 13 15 17 18 18 19 20 17 13 14 14 13 12 11 8 8 7 6 6 6 5 5 4 4 3 1 2 3 5 5 6 6 5 5 5 6 7 8 8 7 9
11 10 14 20 18 20 21 16 10 8 7 9 18 5 9 10 7 2 15 25 22 9 10 14 17 19 17 14 11 11 16 18 18 12 5 4 4 2 2 3 5 7 10 10 11 13 17 20 24 25 22 19 17 13 14 13 13 11 8 9 8 6 6 6 6 5 5 4 4 2 2 3 4 6 6 6 6 5 5 4 6 7 7 8 8 8
5 9 7 12 16 16 17 19 17 13 8 14 2 18 8 7 8 19 23 22 16 5 6 10 14 12 12 15 13 15 15 16 14 1 4 7 8 6 6 7 9 8 6 7 12 17 16 14 16 17 15 11 13 12 11 13 14 10 10 8 7 6 7 7 6 5 5 4 3 2 2 4 5 6 5 5 5 5 5 4 4 6 7 7 8 11
13 11 12 14 9 9 10 13 9 12 10 21 7 8 6 13 20 22 20 12 8 10 11 10 11 12 11 12 13 15 14 10 9 12 11 8 9 10 11 12 13 15 16 17 15 15 18 15 14 12 12 11 10 10 11 14 16 11 7 8 8 7 7 6 6 5 5 4 2 2 4 4 4 4 3 3 3 4 5 5 6 7 7 8 9 10
14 10 4 10 12 11 15 14 13 16 15 16 21 16 16 25 22 19 16 17 16 14 10 8 8 13 12 13 14 12 15 14 8 8 7 7 8 7 9 9 10 14 16 17 19 18 17 17 14 11 10 9 8 8 8 17 14 9 10 9 8 8 7 6 5 5 5 3 2 2 3 3 3 4 2 3 3 3 4 6 6 6 5 7 8 8
15 18 15 15 13 15 14 15 15 10 13 15 24 22 23 28 26 23 19 18 15 14 9 8 15 12 11 14 14 15 13 14 17 16 15 15 12 12 13 14 15 19 21 20 17 15 16 19 16 13 11 8 9 7 7 5 14 14 11 9 9 9 8 7 6 5 4 2 2 3 3 3 2 1 1 2 2 4 5 7 6 7 6 6 7 8
16 24 19 16 16 14 21 18 7 12 17 17 18 22 23 19 21 21 20 17 12 15 14 11 10 8 10 11 9 8 14 14 14 11 10 7 11 9 8 9 10 13 16 15 14 16 17 18 16 13 14 10 8 8 7 6 10 18 11 10 9 9 8 8 7 6 5 3 2 2 1 1 1 1 0 1 2 3 2 4 4 5 7 6 7 8
16 15 16 17 13 12 20 12 21 22 17 23 20 21 19 16 17 17 17 15 16 19 18 7 10 9 9 10 14 16 17 16 10 11 10 9 11 12 15 16 14 16 20 23 16 17 19 20 15 15 15 15 10 8 7 8 6 7 9 10 9 9 8 8 8 6 4 3 2 1 1 2 2 1 0 1 3 3 3 2 4 6 5 6 7 8
15 17 20 23 20 21 23 16 24 22 25 22 16 15 17 21 20 13 14 16 20 19 12 11 7 7 9 10 16 17 17 11 12 14 12 13 12 13 14 16 17 11 12 14 15 21 20 18 19 17 15 14 12 10 9 7 7 7 9 9 9 9 9 9 7 6 6 5 3 1 2 3 4 4 2 3 4 5 6 5 4 4 5 6 7 7
5 11 21 13 19 25 20 21 14 14 10 10 9 12 16 17 18 20 19 19 16 13 13 10 8 12 12 16 16 14 13 13 15 14 13 12 11 11 13 16 20 18 17 18 20 26 22 17 17 16 14 12 11 10 9 8 7 8 10 9 9 9 10 9 8 6 6 4 4 3 1 3 3 4 5 5 4 1 2 4 6 6 7 8 8 8
7 10 5 8 17 16 15 15 14 16 16 16 19 18 17 17 18 18 14 14 14 18 18 21 17 11 12 13 14 12 15 16 11 10 15 14 16 17 15 19 18 20 14 15 16 13 16 14 26 19 13 11 11 10 10 9 8 8 8 8 8 9 11 10 8 8 6 5 5 4 3 3 3 3 5 6 9 10 6 4 7 7 7 7 15 18
12 14 9 14 12 15 9 13 12 16 18 18 19 17 18 16 15 17 19 21 20 19 19 19 18 16 15 16 13 12 15 16 16 15 12 13 17 16 19 22 21 19 16 21 17 15 18 14 19 19 16 11 12 11 10 10 9 9 8 8 8 9 10 10 8 7 6 6 5 4 3 3 3 2 4 6 5 4 9 13 7 5 7 12 16 17
Wind_Direction
356 179 215 218 214 210 214 197 204 196 153 99 111 151 234 229 278 271 238 254 9 306 254 256 246 257 262 262 267 257 196 241 249 239 237 237 220 214 219 222 222 223 229 200 199 192 195 192 191 185 179 179 175 173 170 163 169 173 173 165 185 180 170 175 185 198 202 208 214 219 216 223 230 251 254 246 250 245 247 249 249 252 271 276 276 304
87 234 245 223 208 196 208 165 98 84 83 161 156 192 263 184 254 253 255 3 316 167 296 323 294 267 261 265 260 261 194 244 235 231 239 240 220 219 220 225 223 227 217 164 200 199 189 194 193 186 185 175 176 187 172 174 176 175 174 177 181 176 177 183 189 193 193 196 195 204 232 240 243 258 253 252 237 239 240 242 240 251 265 263 272 292
175 211 247 190 167 95 70 127 146 152 148 79 182 199 296 262 252 287 345 13 298 133 264 304 289 276 269 260 261 229 241 244 240 211 233 231 222 222 222 228 227 220 220 201 210 199 197 194 195 189 191 191 186 176 181 179 171 177 176 182 181 177 178 188 188 183 196 198 199 196 227 221 263 240 255 260 261 267 267 252 249 269 274 274 283 295
283 262 260 175 132 112 52 92 115 75 72 140 106 141 232 218 27 306 285 11 195 173 290 304 289 278 273 253 252 248 233 255 251 225 236 219 223 219 222 218 216 219 215 212 204 202 195 196 196 194 195 191 186 182 181 179 179 176 180 180 179 180 181 185 188 188 192 185 196 201 214 244 240 267 282 272 274 276 282 281 285 282 277 281 289 296
215 209 342 115 143 137 148 160 132 163 221 271 187 217 251 244 229 197 263 300 250 358 61 295 277 269 253 241 261 335 282 274 261 249 250 234 228 232 242 230 217 218 211 215 207 205 198 197 201 199 194 182 191 189 186 182 182 178 182 182 178 177 183 183 184 187 174 181 192 199 262 272 276 267 258 270 264 251 261 279 279 277 280 283 287 295
268 240 134 98 94 87 116 181 219 149 233 318 228 211 220 213 245 277 1 22 5 330 347 10 333 285 296 246 253 261 340 265 258 234 250 238 229 228 233 232 223 229 217 214 209 203 200 202 201 199 193 194 195 193 191 184 183 178 176 174 175 170 176 182 184 177 170 188 186 187 192 217 222 246 224 230 243 249 245 251 257 257 253 256 262 264
221 17 164 164 148 163 196 217 234 166 189 71 264 199 218 218 192 83 344 48 315 218 308 27 95 290 127 207 229 260 213 243 263 267 264 239 225 216 229 231 222 220 218 219 215 203 202 205 200 202 199 197 195 197 180 185 184 181 175 172 171 173 176 176 178 174 175 182 189 194 204 216 227 249 251 233 238 253 258 260 264 271 269 264 274 275
91 47 72 74 130 164 190 249 233 161 129 231 265 110 115 118 152 186 117 166 239 52 311 245 184 270 288 216 225 225 260 275 287 274 266 255 232 221 226 229 224 219 214 209 209 206 206 201 200 202 200 195 199 182 182 185 180 181 176 170 172 171 173 174 169 175 178 182 189 194 206 214 223 230 252 258 265 259 268 271 270 273 272 271 268 277
123 153 163 140 139 157 212 210 192 164 152 222 207 123 129 140 157 136 113 207 220 15 292 256 153 291 254 269 325 60 230 264 261 259 263 258 235 227 229 231 225 220 213 205 207 208 205 204 206 204 198 200 188 186 187 184 180 181 175 167 164 172 171 173 172 173 186 188 187 194 204 223 229 233 247 252 256 268 264 268 268 263 268 267 264 265
317 156 208 157 144 214 216 313 187 176 193 192 136 97 82 74 65 90 122 144 306 67 266 224 178 206 278 163 144 3 173 250 251 250 252 252 235 224 230 234 230 223 215 210 215 212 210 209 206 202 197 189 195 188 184 182 180 178 167 167 167 175 176 171 175 177 182 190 192 195 208 223 236 238 251 253 258 255 256 263 266 266 266 274 277 273
318 287 165 143 195 192 131 64 90 46 80 131 106 70 26 38 36 34 71 84 21 253 248 240 178 182 274 181 175 157 197 201 229 264 270 265 246 237 230 230 223 212 211 212 215 214 213 205 200 187 196 194 183 189 183 185 182 172 172 166 172 180 171 171 173 174 185 185 188 200 209 219 235 241 250 266 266 264 268 271 269 268 275 277 277 278
55 43 201 252 88 109 104 76 31 67 114 121 96 119 34 331 7 44 342 45 187 269 243 255 183 186 219 278 233 220 267 219 193 215 234 243 238 226 220 226 223 211 213 214 210 212 197 187 194 188 198 189 188 182 192 187 179 176 172 164 171 175 176 174 173 176 187 182 194 203 210 220 229 236 241 253 267 272 276 276 282 290 298 295 288 280
267 203 224 61 208 132 119 84 17 19 37 89 83 45 68 277 21 317 37 269 200 237 197 61 138 324 237 245 264 275 263 251 237 224 213 213 243 234 215 219 210 214 212 209 208 196 192 195 191 195 196 182 188 195 188 183 179 174 171 168 166 181 177 177 173 181 186 185 196 203 212 220 229 232 238 249 258 263 266 273 285 304 303 303 299 289
278 30 146 210 92 226 143 162 205 223 206 130 149 137 98 282 93 265 269 223 302 284 263 128 117 249 277 284 216 233 230 232 231 225 230 221 234 239 227 197 210 216 213 210 202 200 199 199 197 196 191 193 192 191 187 181 179 177 171 169 168 179 171 170 173 182 187 195 202 206 212 221 226 237 242 246 254 260 262 269 285 292 293 292 284 287
314 303 245 150 241 165 185 210 189 157 156 200 117 160 188 142 156 238 204 249 258 258 276 273 71 237 103 244 217 212 223 227 234 231 223 244 251 249 272 255 232 230 223 207 205 205 204 201 195 193 194 194 192 187 183 183 181 171 176 167 169 168 174 168 180 181 192 199 203 208 216 221 227 237 246 250 254 262 271 280 291 288 287 284 286 283
222 244 259 343 268 152 183 205 106 103 69 186 167 68 102 225 125 233 209 200 301 337 311 176 215 188 213 80 287 241 302 228 236 235 228 253 252 230 266 254 245 236 222 207 213 214 211 200 193 194 194 195 189 185 184 184 178 179 175 169 171 172 170 174 178 187 189 204 199 208 218 223 227 246 251 260 263 270 274 288 290 289 284 282 286 286
25 274 313 319 105 183 190 127 198 149 202 206 120 203 206 150 148 341 355 69 67 58 267 128 279 262 281 267 203 217 183 232 232 243 241 244 251 225 244 250 245 241 225 209 214 213 201 192 200 198 192 188 185 184 189 185 178 175 168 170 168 170 162 172 178 183 192 198 204 217 219 224 233 238 252 264 280 281 287 291 289 284 283 284 283 286
165 254 238 124 227 250 116 162 42 22 149 104 210 225 147 147 111 134 224 333 66 219 268 75 261 289 288 286 26 101 215 239 232 231 227 239 250 233 242 242 241 239 232 218 219 212 200 198 199 195 193 190 188 187 182 181 176 177 173 166 166 161 172 180 176 184 188 199 212 220 223 231 232 248 260 274 282 287 294 294 290 288 288 286 289 290
133 272 224 237 76 57 358 120 47 339 32 152 191 218 126 218 187 299 88 255 253 248 271 279 271 266 259 261 123 205 205 232 237 237 235 247 247 240 244 246 247 245 225 217 214 207 203 203 202 194 192 188 185 182 180 174 172 170 167 163 160 167 170 168 171 178 185 195 208 213 230 236 249 258 269 280 279 286 291 291 289 288 287 292 293 293
219 209 267 356 117 320 15 142 201 188 334 60 63 86 358 103 169 142 199 193 109 255 12 277 292 270 260 180 170 214 207 220 221 232 225 228 233 231 231 236 241 233 223 222 213 212 210 206 198 191 185 182 181 176 177 173 164 166 161 154 153 144 146 151 169 176 187 197 201 225 237 249 259 274 287 285 285 289 289 288 290 291 293 292 296 293
205 102 243 41 305 72 182 192 213 176 167 174 146 239 342 51 231 108 328 159 171 192 210 279 291 275 255 164 153 199 206 208 207 218 216 225 232 229 224 224 230 227 223 222 216 215 211 203 193 189 182 177 169 169 169 173 170 160 154 155 154 156 162 167 174 171 184 185 200 218 241 259 268 284 283 277 278 283 285 287 288 290 291 296 291 293
142 174 220 151 305 217 239 189 261 119 187 174 176 194 184 147 159 138 257 70 136 172 234 160 254 270 266 143 140 186 205 187 215 204 209 219 226 224 225 229 223 228 228 221 220 214 205 192 181 172 164 162 166 172 173 173 162 159 161 155 153 153 161 161 169 173 177 184 196 218 245 254 271 279 272 274 283 288 289 290 292 294 298 293 292 293
155 123 203 221 232 242 250 291 256 271 144 183 183 212 178 191 120 149 237 235 61 251 89 183 25 269 194 88 140 163 185 202 208 207 215 216 221 222 231 232 233 228 231 224 219 209 197 185 179 175 174 176 178 176 168 167 167 160 156 150 157 155 161 159 162 165 170 180 199 232 244 261 275 274 273 283 291 291 294 294 295 297 297 295 296 296
94 99 218 262 286 40 329 320 288 345 114 90 272 88 136 195 194 207 222 175 186 172 188 344 230 262 268 92 166 169 202 212 222 202 213 230 221 241 242 244 237 236 239 234 209 198 185 170 166 168 177 179 181 177 178 169 157 154 155 154 150 157 154 154 157 160 166 183 211 227 246 261 266 267 274 284 286 287 292 295 295 299 294 295 299 301
146 225 174 243 315 296 338 19 22 340 24 225 198 197 202 217 228 240 67 79 237 218 157 136 247 258 273 83 136 253 274 261 234 231 224 238 241 234 239 242 241 238 238 221 212 190 170 172 180 189 185 185 183 175 171 168 162 156 153 153 153 149 150 147 153 157 170 188 212 232 240 256 262 263 273 280 284 290 296 300 301 299 299 301 300 300
177 167 157 201 227 241 249 241 230 226 214 213 227 125 191 203 205 144 247 192 231 169 139 205 247 252 268 262 255 245 239 260 200 235 244 222 242 233 235 238 236 229 224 222 202 177 192 195 193 186 188 186 184 180 168 163 158 153 149 153 145 144 146 150 150 161 171 185 208 227 235 245 257 267 276 283 289 294 299 299 298 302 300 299 299 300
192 196 191 210 219 232 243 257 175 114 81 180 222 185 208 213 211 207 228 231 219 159 191 228 237 257 266 278 277 272 266 265 274 243 202 239 241 234 241 240 230 219 218 216 204 202 191 191 198 196 189 189 182 178 172 163 155 150 147 145 146 142 144 149 152 163 168 192 208 223 231 242 256 270 278 289 298 303 305 304 303 301 299 302 299 297
84 208 221 225 230 237 245 256 208 163 186 210 193 211 214 202 201 204 211 236 168 124 241 236 245 255 269 273 270 272 274 271 269 280 283 263 251 235 234 236 226 218 226 208 194 197 202 203 195 192 190 183 182 175 168 161 154 151 151 148 147 143 142 147 152 161 174 183 204 211 226 244 260 272 288 299 305 306 305 302 298 299 297 298 298 296
179 227 225 228 238 242 248 255 247 182 240 243 203 218 222 214 204 207 226 236 222 218 238 241 246 244 254 255 260 267 268 277 290 283 279 270 265 261 246 232 209 215 217 204 211 207 205 197 196 193 186 184 173 173 167 158 151 142 136 138 141 142 148 147 148 163 170 185 197 208 222 251 265 283 298 313 315 308 304 301 298 296 296 294 293 291
193 247 246 242 260 255 258 257 245 217 251 254 243 234 238 223 207 217 230 231 231 237 247 260 248 244 249 255 259 265 273 288 287 291 289 281 270 265 258 242 223 225 217 214 214 211 206 204 195 189 183 179 180 175 167 159 154 150 145 146 144 144 145 142 154 159 175 184 188 202 230 255 273 289 323 323 311 306 301 297 295 293 292 291 289 290
173 243 236 263 274 263 263 265 254 228 249 258 258 259 251 240 215 223 232 239 244 255 265 263 265 263 257 259 266 275 284 287 295 283 278 278 280 276 274 268 237 231 227 221 218 213 206 200 191 183 184 186 182 180 171 162 151 143 141 141 144 146 147 143 153 165 172 180 184 206 233 248 266 314 321 315 307 297 293 294 292 290 287 286 288 288
188 261 250 304 276 270 269 269 269 237 235 243 254 256 254 231 222 241 239 241 244 250 254 266 267 258 260 264 265 261 265 270 266 267 269 271 273 273 270 268 260 245 232 222 219 209 198 192 189 188 190 187 182 175 167 157 152 146 148 147 149 145 140 143 156 165 171 176 187 207 218 237 285 320 312 308 296 292 290 287 285 285 287 287 291 292
190 199 229 246 253 254 263 276 227 195 189 289 241 245 259 255 239 249 259 257 229 233 251 251 251 259 271 274 277 265 237 219 252 261 269 269 267 258 257 259 257 254 239 226 213 203 198 195 193 192 189 180 178 176 170 150 144 154 150 146 145 133 144 153 161 164 167 173 187 194 194 240 311 318 305 296 290 288 285 281 283 285 289 290 294 298
198 220 244 225 250 257 259 242 124 165 228 238 256 151 212 244 248 254 255 257 254 203 236 241 260 267 271 271 265 265 277 266 263 263 255 254 268 272 262 244 250 248 243 228 211 204 201 194 192 190 186 180 172 156 141 154 144 137 134 130 134 143 150 157 160 161 168 171 182 174 191 195 3 305 293 291 287 285 285 283 283 289 289 294 300 303
226 224 238 228 248 249 197 110 199 216 236 243 34 250 235 229 233 243 254 258 257 252 246 248 253 260 261 263 263 272 271 270 269 270 272 224 228 258 268 268 246 239 238 225 213 202 193 187 183 174 168 168 158 151 146 137 132 122 126 137 141 149 150 154 153 160 167 168 163 169 181 139 325 292 288 286 283 284 282 284 288 294 302 306 307 310
228 225 223 226 219 22 123 191 233 237 222 350 276 256 253 237 248 270 278 266 251 247 249 247 246 251 257 262 271 269 271 272 277 274 268 206 234 250 258 256 256 243 235 224 207 198 182 179 178 177 175 155 145 149 146 135 134 127 132 137 139 146 150 149 155 160 164 159 166 173 143 129 268 278 280 283 285 285 289 292 297 301 305 305 305 300
224 225 215 242 200 230 213 221 234 317 321 290 283 267 239 210 223 221 256 260 251 247 238 246 249 252 255 261 263 269 271 292 294 281 269 172 242 239 227 246 248 247 232 225 197 196 187 182 172 159 144 148 151 142 140 135 129 124 129 137 143 144 150 152 157 162 159 160 171 155 135 160 246 267 276 277 284 287 291 300 303 307 312 308 306 307
213 217 206 227 209 214 235 243 249 219 241 247 243 247 229 149 197 190 202 275 259 261 248 244 246 252 256 252 250 255 295 321 282 272 280 151 229 244 232 235 248 245 224 187 159 147 144 141 135 140 146 143 143 130 132 128 129 131 134 141 144 148 150 158 162 158 159 167 165 146 147 184 246 260 272 276 275 284 292 292 296 303 311 310 309 308
215 219 223 223 229 215 231 234 230 225 232 226 253 254 230 173 160 127 158 262 256 254 251 235 239 241 246 248 249 235 157 250 256 261 276 249 221 215 230 236 231 219 179 164 157 149 148 147 145 143 141 143 139 141 130 132 134 133 134 140 146 148 152 163 162 158 164 160 144 131 144 221 244 254 266 273 275 282 286 298 305 303 302 300 300 297
210 206 212 226 231 224 232 233 237 218 238 228 244 249 137 148 113 80 301 265 255 249 230 232 226 234 235 235 234 205 203 234 244 256 258 198 196 203 199 203 162 146 148 139 144 148 139 133 129 136 147 149 140 140 143 140 142 142 139 140 142 150 161 161 156 153 146 140 129 124 170 245 241 249 253 267 283 280 281 296 301 308 310 302 298 298
202 209 205 217 217 225 224 241 245 260 258 258 250 136 152 128 112 124 234 252 256 250 182 206 217 224 220 219 197 202 219 219 230 239 106 146 99 120 88 134 152 151 152 150 142 136 131 146 146 150 149 140 139 145 146 145 142 139 139 141 146 158 153 140 139 142 145 128 119 128 206 248 240 249 260 259 272 282 292 301 309 309 304 303 300 296
226 189 232 215 220 218 223 229 229 239 223 236 140 145 171 110 223 223 237 245 257 231 200 185 216 216 206 205 197 213 224 225 233 124 174 177 185 158 156 133 113 86 74 114 131 129 136 141 141 116 109 129 137 137 145 146 143 135 139 144 147 142 131 132 139 139 131 122 110 147 226 229 250 253 251 270 277 296 304 307 307 300 304 300 302 309
175 182 198 197 215 230 231 235 229 242 211 216 151 142 198 204 235 236 250 265 269 251 240 229 219 225 192 212 208 215 232 234 212 215 213 189 161 172 162 159 152 149 144 134 138 149 142 144 145 138 135 142 143 141 148 137 127 130 135 140 142 130 131 134 135 133 118 110 127 184 225 237 244 258 259 272 283 301 314 319 319 313 305 304 305 311
160 211 189 211 183 204 211 209 217 211 223 166 161 196 200 213 227 237 240 254 253 253 244 228 229 224 196 195 203 218 227 228 230 229 213 200 188 163 169 162 156 145 147 148 152 154 149 137 120 129 137 141 141 138 149 147 132 140 137 134 131 132 130 129 130 121 109 114 156 207 234 236 247 254 261 280 303 316 334 331 320 310 303 305 303 300
160 214 205 224 192 205 218 219 223 218 222 189 196 217 216 215 223 231 234 235 243 251 238 200 231 225 192 202 205 210 221 220 218 208 199 205 186 176 175 176 166 161 155 159 159 156 155 143 143 133 133 137 135 138 136 152 135 137 136 138 139 141 139 137 126 114 108 127 196 221 231 245 237 236 248 300 328 359 347 331 326 315 312 304 303 305
190 213 222 239 231 215 235 224 207 214 219 223 210 220 229 227 226 232 238 244 237 245 239 221 229 222 203 209 210 223 225 224 219 213 205 191 181 177 156 144 154 150 114 124 134 135 136 107 107 126 131 134 142 140 151 145 151 135 142 135 141 139 137 131 121 113 122 162 216 245 230 207 180 175 146 349 1 18 328 301 304 300 301 299 304 304
230 219 225 233 228 224 245 185 226 229 219 226 217 225 232 231 227 223 235 238 246 244 247 228 233 223 200 195 208 223 231 227 215 212 196 184 181 177 174 170 162 162 161 161 150 133 135 143 140 146 141 142 155 149 150 144 142 124 130 137 139 132 129 122 119 120 131 177 213 256 313 41 61 73 158 13 22 11 337 304 299 298 284 299 312 309
240 205 233 226 228 224 241 221 227 228 228 229 214 220 228 236 240 231 223 226 234 244 251 248 219 220 194 197 211 219 231 217 203 208 190 188 186 179 181 172 150 142 112 128 144 138 128 147 149 148 149 147 153 154 147 143 132 128 129 134 134 130 124 120 125 131 150 177 181 161 57 64 22 20 358 35 31 7 335 317 306 286 297 308 308 296
301 160 227 212 228 239 247 252 257 262 262 261 243 225 225 230 234 235 234 237 241 250 248 244 197 221 212 222 222 221 230 229 219 202 185 188 179 180 184 175 174 160 150 157 159 158 163 162 152 152 144 144 144 145 142 134 129 136 138 137 138 137 125 127 133 133 149 161 155 128 107 69 59 25 8 349 28 79 240 274 295 294 299 314 315 316
310 247 291 269 249 248 236 238 226 247 248 247 246 238 232 230 237 241 243 246 241 244 245 247 243 229 230 233 232 219 223 236 214 184 198 185 188 189 176 162 150 150 164 142 140 155 138 148 144 146 142 137 141 139 139 135 139 144 139 138 141 137 127 128 128 138 142 155 143 141 112 84 67 36 31 27 3 343 333 244 273 303 314 317 333 337
247 254 253 247 243 256 242 245 232 242 249 242 248 245 242 238 234 235 236 239 238 234 238 239 245 245 237 236 225 213 221 226 217 196 188 193 201 187 175 167 167 165 152 150 143 155 161 162 150 127 131 137 139 141 140 142 146 144 142 146 143 140 136 134 132 134 143 142 147 141 125 120 100 63 55 39 20 357 337 332 326 297 318 343 344 343